Skip Page Navigation
NASA JPL Caltech
NASA Logo - Jet Propulsion Laboratory + View the NASA Portal
+ Center for Near-Earth Object Studies
JPL Home Earth Solar System Stars & Galaxies Technology
JPL Solar System Dynamics
BODIES ORBITS EPHEMERIDES TOOLS PHYSICAL DATA DISCOVERY FAQ SITE MAP
IMPORTANT: The SSD Announcement email list is now available. Major changes are coming in the near future, including possible hostname and/or URL changes. To be notified of such changes, subscribe to this email list.

Please visit this page for more details.


JPL Small-Body Database Browser
Search: [ help ]  
(2013 AT72)
Classification: Aten [NEO]          SPK-ID: 3624059
Ephemeris | Orbit Diagram | Orbital Elements | Mission Design | Physical Parameters | Close-Approach Data ]

[ hide orbit diagram ]

For accurate long-term ephemerides, please instead use our Horizons system.This orbit viewer was implemented using two-body methods, and hence should not be used for determining accurate long-term trajectories (over several years or decades) or planetary encounter circumstances.


[ revert to old Java-based viewer ]

Orbital Elements at Epoch 2458600.5 (2019-Apr-27.0) TDB
Reference: JPL 13 (heliocentric ecliptic J2000)
 Element Value Uncertainty (1-sigma)   Units 
e .5356426356265168 5.9576e-07  
a .678293677257869 1.4435e-08 au
q .3149706642426621 3.9874e-07 au
i 15.01504087653053 5.6623e-05 deg
node 118.1972021721879 7.1387e-06 deg
peri 167.752720082567 7.1512e-05 deg
M 294.7458352094565 0.00013854 deg
tp 2458637.485442126252
(2019-Jun-02.98544213)
7.8152e-05 TDB
period 204.0445879307348
0.56
6.5134e-06
1.783e-08
d
yr
n 1.764320257894838 5.6319e-08 deg/d
Q 1.041616690273076 2.2166e-08 au
  Orbit Determination Parameters
   # obs. used (total)      70  
   data-arc span      1825 days (5.00 yr)  
   first obs. used      2013-01-13  
   last obs. used      2018-01-12  
   planetary ephem.      DE431  
   SB-pert. ephem.      SB431-N16  
   condition code      1  
   norm. resid. RMS      .41851  
   source      ORB  
   producer      Otto Matic  
   solution date      2018-Jan-15 06:56:59  

Additional Information
 Earth MOID = .0214524 au 
 Jupiter MOID = 4.12639 au 
 T_jup = 8.260 
[ show covariance matrix ]

Ephemeris | Orbit Diagram | Orbital Elements | Mission Design | Physical Parameters | Close-Approach Data ]

Physical Parameter Table
Parameter Symbol Value Units Sigma Reference Notes
absolute magnitude H 24.2   n/a MPO250177  

[ show close-approach data ]
Ephemeris | Orbit Diagram | Orbital Elements | Mission Design | Physical Parameters | Close-Approach Data ]
ABOUT SSD CREDITS/AWARDS PRIVACY/COPYRIGHT GLOSSARY LINKS
FirstGov 2019-Dec-10 22:33 UT
(server date/time)  
NASA Home Page
Site Manager:   Ryan S. Park
Webmaster  Alan B. Chamberlin